Regional Weather Roundup
Issued by NWS

Home | Current Version | Previous Version | Graphics & Text | Print | Product List | Glossary On
Versions: 1 2 3 4 5 6 7 8 9 10 11 12 13 14 15 16 17 18 19 20 21 22 23 24 25 26 27 28 29 30 31 32 33 34 35 36 37 38 39 40 41 42 43 44 45 46 47 48 49 50
000
ASUS43 KOAX 232010
RWRNE

WEATHER ROUNDUP FOR NEBRASKA
NATIONAL WEATHER SERVICE OMAHA NE
300 PM CDT FRI JUN 23 2017

NOTES: SATELLITE DATA IS BEING USED TO AUGMENT CLOUD COVER ABOVE
       12000 FEET.
       "FAIR" INDICATES FEW OR NO CLOUDS BELOW 12,000 FEET WITH NO
       SIGNIFICANT WEATHER AND/OR OBSTRUCTIONS TO VISIBILITY.

  * THESE STATIONS DO NOT REPORT WEATHER SUCH AS RAIN...SNOW OR FOG.

NEZ001>004-019>022-054>056-232100-
NEBRASKA PANHANDLE

CITY           SKY/WX    TMP DP  RH WIND       PRES   REMARKS
SCOTTSBLUFF    SUNNY     72  33  24 NW12      30.19F
ALLIANCE       SUNNY     70  34  26 N13G24    30.18F
CHADRON        SUNNY     72  31  22 NW22G31   30.15F
GORDON         FAIR      66  40  37 NW8       30.17S
KIMBALL        MOSUNNY   65  42  41 NW6       30.25F
SIDNEY         PTSUNNY   67  39  35 NW7       30.22F
$$

NEZ057>060-069>072-079>082-232100-
SOUTHWEST NEBRASKA

CITY           SKY/WX    TMP DP  RH WIND       PRES   REMARKS
NORTH PLATTE   SUNNY     77  40  26 NW13      30.12F
IMPERIAL       CLOUDY    72  37  28 NW15G22   30.17F
LEXINGTON      MOSUNNY   75  44  32 N12G24    30.11S
MCCOOK         PTSUNNY   77  46  33 NW14      30.13F
OGALLALA       MOSUNNY   75  28  17 NW12G20   30.16F
$$

NEZ005>010-023>029-035>040-094-232100-
NORTH CENTRAL NEBRASKA

CITY           SKY/WX    TMP DP  RH WIND       PRES   REMARKS
VALENTINE      MOSUNNY   72  37  28 NW17G24   30.13S
AINSWORTH      PTSUNNY   67  41  39 N16G25    30.12F
BROKEN BOW     MOSUNNY   73  43  33 NW16      30.11S
O`NEILL        PTSUNNY   69  48  46 NW17G26   30.09S
ORD            PTSUNNY   72  44  36 NW17G24   30.07S
THEDFORD       MOSUNNY   71  42  35 NW15G23   30.15S
$$

NEZ041-046>049-061>064-073>077-083>087-232100-
SOUTH CENTRAL NEBRASKA

CITY           SKY/WX    TMP DP  RH WIND       PRES   REMARKS
GRAND ISLAND   SUNNY     75  46  35 NW20G29   30.06F
AURORA         MOSUNNY   75  48  38 NW18G25   30.05F
HASTINGS       MOSUNNY   75  48  38 N16G24    30.09S
HEBRON         SUNNY     76  51  41 N15       30.06R
HOLDREGE       MOSUNNY   73  45  36 NW13G18   30.09S
KEARNEY *      MOSUNNY   75  43  31 N16       30.09S
YORK           MOSUNNY   75  48  38 NW17G23   30.05S
$$

NEZ011>018-030>034-042>045-232100-
NORTHEAST NEBRASKA

CITY           SKY/WX    TMP DP  RH WIND       PRES   REMARKS
NORFOLK        MOSUNNY   71  48  43 N22G28    30.02F
ALBION         MOSUNNY   73  46  37 NW22G30   30.05F
BLAIR          MOSUNNY   71  51  50 NW16G25   30.00F
FREMONT        CLOUDY    71  50  46 NW17      30.02F
TEKAMAH        MOSUNNY   75  49  39 NW21G29   29.99F
WAYNE          PTSUNNY   72  48  43 NW21G29   30.02F
$$

NEZ050>053-065>068-078-088>093-232100-
SOUTHEAST NEBRASKA

CITY           SKY/WX    TMP DP  RH WIND       PRES   REMARKS
LINCOLN        MOSUNNY   76  52  43 NW17G24   30.02F
OMAHA EPPLEY   MOSUNNY   74  53  48 NW16G24   29.99F
BEATRICE       SUNNY     75  54  48 NW16G25   30.02S
FALLS CITY     CLOUDY    72  55  55 N12       29.98S
NEBRASKA CITY  CLOUDY    72  57  58 N14G21    30.00S
PLATTSMOUTH    MOSUNNY   72  53  50 NW13G24   30.00S
$$

NEZ044-045-051>053-067-232100-
OMAHA AREA

CITY           SKY/WX    TMP DP  RH WIND       PRES   REMARKS
OMAHA EPPLEY   MOSUNNY   74  53  48 NW16G24   29.99F
BLAIR          MOSUNNY   71  51  50 NW16G25   30.00F
FREMONT        CLOUDY    71  50  46 NW17      30.02F
MILLARD        PTSUNNY   74  54  49 NW12G23   30.00F
OFFUTT AFB     MOSUNNY   75  54  46 W12       30.01S
PLATTSMOUTH    MOSUNNY   72  53  50 NW13G24   30.00S
WAHOO          MOCLDY    74  47  38 NW16G23   30.01F
$$




USA.gov is the U.S. government's official web portal to all federal, state and local government web resources and services.